EWG334 LIRN-LIPH

Flight info

Callsign EWG334
Flight time 1h 1m
Altitude 34000
Route ALAXI DCT INSOX DCT BELOV DCT CHI N503 INBUT
Aircraft A320/M-SDE3FGHIRWY/LB1

Departure

Time 2026-04-26 08:36
Airport Naples International Airport (LIRN)

Arrival

Time 2026-04-26 09:37
Airport Treviso Airport (LIPH)
Time Latitude Longitude Altitude Speed Heading
2026-04-26 08:22 40.88000 14.28441 289 ft 0 kts 154°
2026-04-26 08:28 40.88006 14.28438 287 ft 0 kts 336°
2026-04-26 08:32 40.88012 14.28434 298 ft 5 kts 334°
2026-04-26 08:32 40.88048 14.28462 286 ft 6 kts 84°
2026-04-26 08:32 40.88040 14.28569 284 ft 14 kts 89°
2026-04-26 08:32 40.88094 14.28688 282 ft 17 kts 52°
2026-04-26 08:33 40.88176 14.28833 278 ft 22 kts 52°
2026-04-26 08:33 40.88279 14.29009 274 ft 27 kts 52°
2026-04-26 08:33 40.88400 14.29218 268 ft 31 kts 53°
2026-04-26 08:33 40.88538 14.29457 262 ft 35 kts 54°
2026-04-26 08:34 40.88691 14.29724 254 ft 38 kts 51°
2026-04-26 08:34 40.88859 14.30015 245 ft 39 kts 53°
2026-04-26 08:34 40.88966 14.30189 238 ft 15 kts 26°
2026-04-26 08:34 40.89012 14.30173 238 ft 5 kts 316°
2026-04-26 08:35 40.89057 14.30121 238 ft 12 kts 319°
2026-04-26 08:35 40.89046 14.30012 240 ft 10 kts 239°
2026-04-26 08:35 40.89038 14.29995 241 ft 11 kts 237°
2026-04-26 08:35 40.88839 14.29579 254 ft 92 kts 237°
2026-04-26 08:36 40.88387 14.28626 308 ft 147 kts 235°
2026-04-26 08:36 40.87849 14.27479 895 ft 154 kts 237°
2026-04-26 08:36 40.86976 14.26649 1444 ft 166 kts 183°
2026-04-26 08:36 40.85794 14.26617 1985 ft 175 kts 180°
2026-04-26 08:37 40.84539 14.26704 2521 ft 186 kts 176°
2026-04-26 08:37 40.83215 14.26819 3049 ft 197 kts 177°
2026-04-26 08:37 40.81765 14.27000 3394 ft 222 kts 174°
2026-04-26 08:37 40.80157 14.27273 3807 ft 244 kts 173°
2026-04-26 08:38 40.78396 14.27625 4280 ft 267 kts 172°
2026-04-26 08:38 40.76487 14.28055 4805 ft 289 kts 171°
2026-04-26 08:38 40.74424 14.28443 5270 ft 310 kts 175°
2026-04-26 08:38 40.72228 14.28856 5743 ft 330 kts 160°
2026-04-26 08:39 40.70344 14.30627 6318 ft 341 kts 127°
2026-04-26 08:39 40.69397 14.33387 7584 ft 324 kts 100°
2026-04-26 08:39 40.69344 14.36243 9050 ft 304 kts 79°
2026-04-26 08:39 40.70065 14.38821 10086 ft 300 kts 55°
2026-04-26 08:40 40.71451 14.40867 10827 ft 303 kts 38°
2026-04-26 08:40 40.73241 14.42227 11547 ft 304 kts 17°
2026-04-26 08:40 40.74814 14.42617 12104 ft 305 kts 359°
2026-04-26 08:40 40.76960 14.42276 12829 ft 309 kts 348°
2026-04-26 08:41 40.79101 14.41753 13553 ft 315 kts 348°
2026-04-26 08:41 40.81267 14.41213 14255 ft 319 kts 348°
2026-04-26 08:41 40.83455 14.40663 14929 ft 322 kts 347°
2026-04-26 08:41 40.85670 14.40111 15612 ft 325 kts 347°
2026-04-26 08:42 40.87877 14.39562 16279 ft 329 kts 347°
2026-04-26 08:42 40.90198 14.38978 16614 ft 344 kts 346°
2026-04-26 08:42 40.92501 14.37949 16922 ft 354 kts 332°
2026-04-26 08:42 40.94586 14.36187 17493 ft 357 kts 319°
2026-04-26 08:43 40.96406 14.33947 18136 ft 359 kts 315°
2026-04-26 08:43 40.98220 14.31649 18747 ft 362 kts 315°
2026-04-26 08:43 41.00047 14.29335 19299 ft 365 kts 315°
2026-04-26 08:43 41.01889 14.27000 19858 ft 368 kts 315°
2026-04-26 08:44 41.03741 14.24646 20415 ft 371 kts 315°
2026-04-26 08:44 41.05608 14.22275 20972 ft 374 kts 315°
2026-04-26 08:44 41.07519 14.19848 21548 ft 377 kts 315°
2026-04-26 08:44 41.09422 14.17429 22084 ft 380 kts 315°
2026-04-26 08:45 41.11363 14.14960 22653 ft 383 kts 315°
2026-04-26 08:45 41.13268 14.12537 23188 ft 386 kts 315°
2026-04-26 08:45 41.15238 14.10031 23723 ft 389 kts 315°
2026-04-26 08:45 41.17195 14.07534 24151 ft 392 kts 315°
2026-04-26 08:46 41.19136 14.05049 24575 ft 394 kts 315°
2026-04-26 08:46 41.21115 14.02516 24991 ft 397 kts 315°
2026-04-26 08:46 41.23124 13.99948 25398 ft 399 kts 315°
2026-04-26 08:46 41.25145 13.97363 25808 ft 402 kts 315°
2026-04-26 08:47 41.27165 13.94778 26199 ft 404 kts 315°
2026-04-26 08:47 41.29196 13.92178 26582 ft 407 kts 315°
2026-04-26 08:47 41.31241 13.89556 26962 ft 409 kts 315°
2026-04-26 08:47 41.33291 13.86920 27330 ft 411 kts 315°
2026-04-26 08:48 41.35350 13.84269 27688 ft 414 kts 315°
2026-04-26 08:48 41.37433 13.81584 28045 ft 416 kts 315°
2026-04-26 08:48 41.39516 13.78897 28399 ft 419 kts 315°
2026-04-26 08:48 41.41639 13.76154 28756 ft 421 kts 315°
2026-04-26 08:49 41.43750 13.73429 29104 ft 423 kts 316°
2026-04-26 08:49 41.45871 13.70691 29440 ft 425 kts 316°
2026-04-26 08:49 41.48029 13.67906 29753 ft 428 kts 316°
2026-04-26 08:49 41.49734 13.65700 29995 ft 430 kts 316°
2026-04-26 08:50 41.51882 13.62921 30289 ft 432 kts 316°
2026-04-26 08:50 41.54044 13.60122 30545 ft 434 kts 316°
2026-04-26 08:50 41.56247 13.57267 30789 ft 436 kts 316°
2026-04-26 08:50 41.58421 13.54442 31033 ft 438 kts 315°
2026-04-26 08:51 41.62802 13.48727 31501 ft 441 kts 315°
2026-04-26 08:51 41.65004 13.45854 31729 ft 443 kts 315°
2026-04-26 08:51 41.67197 13.42989 32030 ft 442 kts 315°
2026-04-26 08:52 41.69403 13.40104 32362 ft 441 kts 315°
2026-04-26 08:52 41.71719 13.37412 32699 ft 441 kts 323°
2026-04-26 08:52 41.74320 13.35263 33033 ft 440 kts 333°
2026-04-26 08:52 41.77156 13.33715 33367 ft 441 kts 342°
2026-04-26 08:53 41.80141 13.32731 33668 ft 441 kts 346°
2026-04-26 08:53 41.83137 13.31840 33957 ft 441 kts 346°
2026-04-26 08:53 41.86134 13.30943 34135 ft 441 kts 346°
2026-04-26 08:53 41.89080 13.30055 34229 ft 428 kts 346°
2026-04-26 08:54 41.91973 13.29155 34322 ft 426 kts 345°
2026-04-26 08:54 41.97681 13.27034 34514 ft 425 kts 342°
2026-04-26 08:55 42.03323 13.24711 34709 ft 423 kts 341°
2026-04-26 08:55 42.08963 13.22417 34823 ft 423 kts 342°
2026-04-26 08:55 42.11775 13.21306 34469 ft 422 kts 342°
2026-04-26 08:56 42.14596 13.20203 34182 ft 421 kts 342°
2026-04-26 08:56 42.20239 13.17992 34161 ft 423 kts 342°
2026-04-26 08:57 42.24969 13.16120 34158 ft 422 kts 342°
2026-04-26 08:57 42.30597 13.13889 34161 ft 422 kts 342°
2026-04-26 08:58 42.36226 13.11657 34159 ft 421 kts 342°
2026-04-26 08:58 42.41848 13.09419 34158 ft 420 kts 342°
2026-04-26 08:59 42.47451 13.07190 34155 ft 420 kts 342°
2026-04-26 08:59 42.53093 13.04945 34155 ft 420 kts 342°
2026-04-26 09:00 42.58701 13.02702 34164 ft 420 kts 341°
2026-04-26 09:00 42.64272 13.00463 34177 ft 420 kts 342°
2026-04-26 09:01 42.69868 12.98217 34180 ft 419 kts 342°
2026-04-26 09:01 42.75463 12.95972 34180 ft 419 kts 342°
2026-04-26 09:02 42.81096 12.93709 34170 ft 419 kts 341°
2026-04-26 09:02 42.86681 12.91450 34171 ft 419 kts 342°
2026-04-26 09:03 42.87625 12.91069 34172 ft 418 kts 341°
2026-04-26 09:03 42.89941 12.90117 34183 ft 414 kts 341°
2026-04-26 09:04 42.95178 12.87983 34153 ft 419 kts 342°
2026-04-26 09:04 43.00773 12.85739 34174 ft 418 kts 342°
2026-04-26 09:05 43.06313 12.83500 34184 ft 418 kts 341°
2026-04-26 09:05 43.11892 12.81227 34181 ft 418 kts 342°
2026-04-26 09:06 43.17456 12.78953 34174 ft 418 kts 341°
2026-04-26 09:06 43.23038 12.76675 34172 ft 417 kts 341°
2026-04-26 09:07 43.28639 12.74382 34172 ft 417 kts 341°
2026-04-26 09:07 43.34085 12.72143 34162 ft 417 kts 341°
2026-04-26 09:08 43.39764 12.69818 34153 ft 417 kts 341°
2026-04-26 09:08 43.45332 12.67529 34163 ft 417 kts 341°
2026-04-26 09:09 43.50892 12.65231 34158 ft 417 kts 341°
2026-04-26 09:09 43.56457 12.62922 34153 ft 417 kts 341°
2026-04-26 09:10 43.62024 12.60615 34154 ft 418 kts 341°
2026-04-26 09:10 43.67587 12.58314 34147 ft 417 kts 341°
2026-04-26 09:11 43.73191 12.55987 34136 ft 418 kts 341°
2026-04-26 09:11 43.78773 12.53661 34130 ft 418 kts 341°
2026-04-26 09:12 43.84344 12.51331 34127 ft 418 kts 341°
2026-04-26 09:12 43.89913 12.49002 34008 ft 418 kts 341°
2026-04-26 09:12 43.92684 12.47844 33730 ft 415 kts 341°
2026-04-26 09:13 43.95445 12.46688 33467 ft 413 kts 341°
2026-04-26 09:13 43.98182 12.45539 33191 ft 411 kts 341°
2026-04-26 09:13 44.00920 12.44390 32927 ft 409 kts 341°
2026-04-26 09:13 44.03635 12.43254 32662 ft 407 kts 341°
2026-04-26 09:14 44.06349 12.42116 32403 ft 405 kts 341°
2026-04-26 09:14 44.09040 12.40984 32166 ft 403 kts 341°
2026-04-26 09:14 44.11725 12.39850 31912 ft 401 kts 341°
2026-04-26 09:14 44.14393 12.38719 31660 ft 399 kts 342°
2026-04-26 09:15 44.17039 12.37596 31394 ft 396 kts 342°
2026-04-26 09:15 44.19661 12.36485 30951 ft 391 kts 342°
2026-04-26 09:15 44.22256 12.35388 30475 ft 388 kts 342°
2026-04-26 09:15 44.24819 12.34303 29967 ft 384 kts 342°
2026-04-26 09:16 44.27366 12.33225 29501 ft 379 kts 342°
2026-04-26 09:16 44.29875 12.32164 29063 ft 375 kts 342°
2026-04-26 09:16 44.32225 12.31167 28648 ft 370 kts 342°
2026-04-26 09:16 44.34672 12.30123 28222 ft 365 kts 342°
2026-04-26 09:17 44.37087 12.29092 27805 ft 361 kts 342°
2026-04-26 09:17 44.39477 12.28077 27389 ft 356 kts 342°
2026-04-26 09:17 44.41832 12.27076 26995 ft 352 kts 342°
2026-04-26 09:17 44.44155 12.26085 26587 ft 347 kts 342°
2026-04-26 09:18 44.46453 12.25103 26204 ft 343 kts 342°
2026-04-26 09:18 44.48585 12.24191 25821 ft 339 kts 342°
2026-04-26 09:18 44.50826 12.23230 25418 ft 335 kts 342°
2026-04-26 09:18 44.53039 12.22282 25023 ft 332 kts 342°
2026-04-26 09:19 44.55241 12.21337 24597 ft 329 kts 342°
2026-04-26 09:19 44.57420 12.20402 24190 ft 326 kts 343°
2026-04-26 09:19 44.59583 12.19475 23775 ft 324 kts 343°
2026-04-26 09:19 44.61763 12.18540 23287 ft 322 kts 343°
2026-04-26 09:20 44.63890 12.17627 22878 ft 318 kts 343°
2026-04-26 09:20 44.65998 12.16722 22474 ft 315 kts 343°
2026-04-26 09:20 44.68084 12.15827 22064 ft 313 kts 343°
2026-04-26 09:20 44.70159 12.14937 21676 ft 312 kts 343°
2026-04-26 09:21 44.72233 12.14042 21285 ft 310 kts 343°
2026-04-26 09:21 44.74291 12.13150 20886 ft 309 kts 343°
2026-04-26 09:21 44.76340 12.12263 20499 ft 308 kts 343°
2026-04-26 09:21 44.78387 12.11379 20108 ft 307 kts 343°
2026-04-26 09:22 44.80403 12.10510 19728 ft 306 kts 343°
2026-04-26 09:22 44.82458 12.09624 19337 ft 305 kts 343°
2026-04-26 09:22 44.84508 12.08738 18951 ft 304 kts 344°
2026-04-26 09:22 44.86529 12.07865 18565 ft 303 kts 344°
2026-04-26 09:23 44.88544 12.06996 18165 ft 303 kts 344°
2026-04-26 09:23 44.90557 12.06125 17778 ft 302 kts 344°
2026-04-26 09:23 44.92553 12.05258 17419 ft 299 kts 343°
2026-04-26 09:23 44.94523 12.04399 17141 ft 295 kts 343°
2026-04-26 09:24 44.96490 12.03541 16695 ft 297 kts 343°
2026-04-26 09:24 44.98440 12.02690 16434 ft 292 kts 343°
2026-04-26 09:24 45.00396 12.01836 16047 ft 293 kts 343°
2026-04-26 09:24 45.02330 12.00995 15694 ft 293 kts 343°
2026-04-26 09:25 45.04268 12.00153 15445 ft 289 kts 343°
2026-04-26 09:25 45.06173 11.99323 15221 ft 284 kts 343°
2026-04-26 09:25 45.08055 11.98502 14926 ft 283 kts 343°
2026-04-26 09:25 45.09935 11.97680 14620 ft 282 kts 343°
2026-04-26 09:26 45.11811 11.96860 14327 ft 281 kts 343°
2026-04-26 09:26 45.13678 11.96043 14049 ft 280 kts 343°
2026-04-26 09:26 45.15233 11.95362 13782 ft 279 kts 343°
2026-04-26 09:26 45.16463 11.94826 13562 ft 278 kts 343°
2026-04-26 09:27 45.18338 11.94006 13148 ft 280 kts 343°
2026-04-26 09:27 45.20184 11.93197 12688 ft 283 kts 343°
2026-04-26 09:27 45.22039 11.92384 12220 ft 276 kts 343°
2026-04-26 09:27 45.23854 11.91588 11738 ft 270 kts 343°
2026-04-26 09:28 45.25640 11.90804 11172 ft 269 kts 343°
2026-04-26 09:28 45.27408 11.90023 10818 ft 265 kts 343°
2026-04-26 09:28 45.29171 11.89243 10488 ft 264 kts 343°
2026-04-26 09:28 45.30918 11.88474 10143 ft 263 kts 343°
2026-04-26 09:29 45.32660 11.87706 9758 ft 261 kts 343°
2026-04-26 09:29 45.34397 11.86942 9391 ft 262 kts 343°
2026-04-26 09:29 45.36131 11.86179 9029 ft 261 kts 343°
2026-04-26 09:29 45.37860 11.85416 8653 ft 260 kts 343°
2026-04-26 09:30 45.39582 11.84656 8284 ft 259 kts 343°
2026-04-26 09:30 45.41295 11.83895 7916 ft 257 kts 343°
2026-04-26 09:30 45.43007 11.83138 7525 ft 257 kts 344°
2026-04-26 09:30 45.44711 11.82384 7138 ft 257 kts 344°
2026-04-26 09:31 45.45696 11.81948 6914 ft 257 kts 345°
2026-04-26 09:31 45.47408 11.81201 6513 ft 260 kts 345°
2026-04-26 09:31 45.49153 11.80428 6076 ft 261 kts 344°
2026-04-26 09:31 45.50885 11.79667 5665 ft 260 kts 347°
2026-04-26 09:32 45.52647 11.79585 5194 ft 258 kts 16°
2026-04-26 09:32 45.54201 11.80828 4826 ft 254 kts 47°
2026-04-26 09:32 45.55090 11.82927 4582 ft 246 kts 69°
2026-04-26 09:32 45.55691 11.85187 4332 ft 241 kts 69°
2026-04-26 09:33 45.56286 11.87396 4124 ft 236 kts 69°
2026-04-26 09:33 45.56863 11.89537 4021 ft 225 kts 69°
2026-04-26 09:33 45.57414 11.91586 3834 ft 219 kts 69°
2026-04-26 09:33 45.57957 11.93607 3582 ft 216 kts 69°
2026-04-26 09:34 45.58492 11.95601 3313 ft 215 kts 69°
2026-04-26 09:34 45.59029 11.97603 3027 ft 217 kts 69°
2026-04-26 09:34 45.59566 11.99605 2749 ft 218 kts 69°
2026-04-26 09:34 45.60112 12.01644 2454 ft 222 kts 69°
2026-04-26 09:35 45.60669 12.03727 2148 ft 225 kts 69°
2026-04-26 09:35 45.61213 12.05762 1862 ft 212 kts 69°
2026-04-26 09:35 45.61715 12.07641 1591 ft 192 kts 70°
2026-04-26 09:35 45.62178 12.09374 1343 ft 187 kts 70°
2026-04-26 09:36 45.62624 12.11048 1095 ft 173 kts 69°
2026-04-26 09:36 45.63039 12.12602 913 ft 163 kts 69°
2026-04-26 09:36 45.63415 12.14011 698 ft 155 kts 69°
2026-04-26 09:36 45.63781 12.15387 512 ft 141 kts 69°
2026-04-26 09:37 45.64120 12.16664 315 ft 137 kts 69°
2026-04-26 09:37 45.64461 12.17933 135 ft 136 kts 68°
2026-04-26 09:37 45.64779 12.19092 61 ft 122 kts 71°
2026-04-26 09:37 45.64973 12.19866 57 ft 45 kts 67°
2026-04-26 09:38 45.65083 12.20184 61 ft 25 kts 29°
2026-04-26 09:38 45.65210 12.20273 60 ft 18 kts 20°
2026-04-26 09:38 45.65319 12.20277 59 ft 17 kts 340°
2026-04-26 09:38 45.65333 12.20270 60 ft 0 kts 340°